Location: Lane
(33.5226°N, 79.8788°W)
Time: 15:06:23
(UTC+00:00)

SR - All Passes

Search period start: 26 September 2022 00:00
Search period end: 06 October 2022 00:00
Orbit: 573 x 879 km, 66.7° (Epoch: 26 September)

Date Brightness Start Highest point End Pass type
(mag) Time Alt. Az. Time Alt. Az. Time Alt. Az.
26 Sep - 02:20:42 10° SSE 02:25:09 23° ESE 02:29:42 10° NE night (unlit)
26 Sep - 04:01:20 10° SW 04:06:53 46° WNW 04:12:34 10° NNE night (unlit)
26 Sep - 12:46:56 10° NNW 12:52:10 56° ENE 12:56:55 10° SE daylight
26 Sep - 14:31:08 10° WNW 14:33:28 13° WSW 14:35:44 10° SW daylight
27 Sep - 01:34:45 10° ESE 01:35:24 10° E 01:36:04 10° E night (unlit)
27 Sep - 03:10:48 10° SSW 03:16:36 90° WNW 03:22:33 10° NNE night (unlit)
27 Sep - 04:56:26 10° W 04:59:28 14° NW 05:02:30 10° NNW night (unlit)
27 Sep - 11:57:14 10° N 12:01:44 27° NE 12:05:53 10° ESE daylight
27 Sep - 13:39:11 10° NW 13:43:43 31° WSW 13:47:54 10° S daylight
28 Sep - 02:21:04 10° S 02:26:31 44° ESE 02:32:06 10° NE night (unlit)
28 Sep - 04:03:55 10° WSW 04:08:45 26° NW 04:13:40 10° N night (unlit)
28 Sep - 11:08:22 10° NNE 11:11:02 14° NE 11:13:36 10° ENE daylight
28 Sep - 12:48:31 10° NNW 12:53:45 72° WSW 12:58:30 10° SSE daylight
29 Sep - 01:32:23 10° SSE 01:36:37 21° ESE 01:40:56 10° ENE night (unlit)
29 Sep - 03:12:39 10° SW 03:18:17 50° WNW 03:24:02 10° NNE night (unlit)
29 Sep - 11:58:24 10° NNW 12:03:32 50° ENE 12:08:13 10° SE daylight
29 Sep - 13:42:09 10° WNW 13:44:56 15° WSW 13:47:35 10° SW daylight
30 Sep - 02:22:13 10° SSW 02:28:01 83° ESE 02:33:58 10° NNE night (unlit)
30 Sep - 04:07:24 10° W 04:10:47 15° NW 04:14:10 10° NNW night (unlit)
30 Sep - 11:08:46 10° N 11:13:04 24° NE 11:17:03 10° ESE daylight
30 Sep - 12:50:30 10° NW 12:55:08 34° WSW 12:59:25 10° S daylight
01 Oct - 01:32:36 10° S 01:37:57 40° ESE 01:43:26 10° NE night (unlit)
01 Oct - 03:15:06 10° WSW 03:20:06 28° NW 03:25:10 10° N night (unlit)
01 Oct - 10:20:10 10° NNE 10:22:20 12° NE 10:24:26 10° ENE visible
01 Oct - 11:59:55 10° NNW 12:05:09 81° WSW 12:09:53 10° SSE daylight
02 Oct - 00:44:06 10° SSE 00:48:04 19° ESE 00:52:07 10° ENE night (unlit)
02 Oct - 02:23:58 10° SW 02:29:40 55° WNW 02:35:28 10° NNE night (unlit)
02 Oct - 11:09:51 10° NNW 11:14:54 45° ENE 11:19:29 10° SE daylight
02 Oct - 12:53:16 10° WNW 12:56:22 17° WSW 12:59:20 10° SW daylight
03 Oct - 01:33:38 10° SSW 01:39:25 76° ESE 01:45:21 10° NNE visible
03 Oct - 03:18:25 10° W 03:22:06 17° NW 03:25:48 10° N night (unlit)
03 Oct - 10:20:19 10° N 10:24:23 22° NE 10:28:10 10° ESE visible
03 Oct - 12:01:49 10° NW 12:06:34 38° WSW 12:10:54 10° S daylight
04 Oct - 00:44:08 10° S 00:49:23 36° ESE 00:54:45 10° NE visible
04 Oct - 02:26:19 10° WSW 02:31:27 31° NW 02:36:39 10° N visible
04 Oct - 09:32:06 10° NNE 09:33:37 11° NE 09:35:06 10° ENE visible
04 Oct - 11:11:18 10° NNW 11:16:32 90° SW 11:21:14 10° SSE daylight
04 Oct - 23:55:50 10° SE 23:59:31 17° ESE 00:03:15 10° ENE visible
05 Oct - 01:35:17 10° SW 01:41:02 60° WNW 01:46:54 10° NNE visible
05 Oct - 10:21:18 10° NNW 10:26:14 40° ENE 10:30:43 10° SE visible
05 Oct - 12:04:23 10° WNW 12:07:48 18° WSW 12:11:01 10° SSW daylight
